2019-093A (44879 NORAD) Tracking and Keplerian Element Data

This shows tracking and keplerian element data for the satellite.

Feedback or suggestion? Click here.




ElementValue
Catalog44879
Name2019-093A
Epoch Orbit426
Epoch Day17.89435597
Epoch Year2020
RAAN94.8545
Inclination97.9749
Eccentricity0.0016324
Argument of Perigee161.9314
Mean Anonmoly198.3404
Mean Motion14.81313569
Decay Rate1.115E-05
L11 44879U 19093A 20017.89435597 .00001115 00000-0 14948-3 0 9991
L22 44879 97.9749 94.8545 0016324 161.9314 198.3404 14.81313569 4267

Live tracking and technical data element details for 2019-093A (NORAD 44879). 2019-093A can be tracked NOW for your location showing map with azimuth and elevation plus other details from your city location.

Track the satellite on the map from your city or location and see movement details for azimuth, elevation, latitude, longitude, range, height, and movement on the map or in text.







IsCatalogInMostPopularTable: catalog: 44879, numindb: 10
Update: records affected: 1



GetName: 44879 2019-093A

Hit Count: updated at: Sat, 18 Jan 2020 18:10:15 GMT